This is the latest recevied weather packets stored in our database for station/object KG4LKY-5. If no packets are shown the sender has not sent any weather packets the latest 10 day(s).
| Time | Temp. | Humidity | Pressure | Rain* | Wind** | Luminosity | Snow |
|---|---|---|---|---|---|---|---|
| 1777890913 | 8.89° C | 100% | 1015.7 hPa | 1.52 mm | - | - | - |
| 1777890613 | 8.89° C | 96% | 1015.4 hPa | 1.52 mm | - | - | - |
| 1777890312 | 8.33° C | 96% | 1015.4 hPa | 1.27 mm | - | - | - |
| 1777890011 | 8.33° C | 97% | 1015.3 hPa | 0.76 mm | - | - | - |
| 1777889711 | 8.89° C | 95% | 1016.6 hPa | 0.51 mm | - | - | - |
| 1777889411 | 9.44° C | 85% | 1016.1 hPa | 0.51 mm | - | - | - |
| 1777889111 | 10° C | 82% | 1015.8 hPa | 0.51 mm | - | - | - |
| 1777888811 | 9.44° C | 83% | 1015.7 hPa | 0.51 mm | - | - | - |
| 1777888510 | 9.44° C | 82% | 1015.8 hPa | 0.51 mm | - | - | - |
| 1777887608 | 9.44° C | 92% | 1015.4 hPa | 0.51 mm | - | - | - |
| 1777887308 | 8.89° C | 93% | 1015.3 hPa | 0.51 mm | - | - | - |
| 1777887007 | 8.89° C | 95% | 1015.4 hPa | 0.51 mm | - | - | - |
| 1777886706 | 8.89° C | 94% | 1015.4 hPa | 0.51 mm | - | - | - |
| 1777886407 | 8.89° C | 96% | 1015.6 hPa | 0.51 mm | - | - | - |
| 1777886107 | 8.89° C | 97% | 1013.8 hPa | 0.51 mm | - | - | - |
| 1777885805 | 8.33° C | 100% | 1015.7 hPa | 0.51 mm | - | - | - |
| 1777885506 | 8.33° C | 100% | 1015.7 hPa | 0.51 mm | - | - | - |
| 1777885206 | 8.33° C | 100% | 1015.8 hPa | 0.51 mm | - | - | - |
| 1777884905 | 8.33° C | 100% | 1016 hPa | 0.51 mm | - | - | - |
| 1777884605 | 8.89° C | 100% | 1016.3 hPa | 0.51 mm | - | - | - |
| 1777884305 | 8.89° C | 100% | 1016.6 hPa | 0.51 mm | - | - | - |
| 1777884004 | 8.89° C | 100% | 1016.6 hPa | 0.51 mm | - | - | - |
| 1777883704 | 9.44° C | 77% | 1017.3 hPa | 0 mm | - | - | - |
| 1777883404 | 9.44° C | 87% | 1017.5 hPa | 0 mm | - | - | - |
| 1777883104 | 10° C | 81% | 1017.5 hPa | 0 mm | - | - | - |
* Rain since midnight (hover to see other rain measurements)
** Current wind speed in m/s (hover to see current wind gust speed)